Location: �clusier
(49.9361°N, 2.7869°E)
Time: 07:13:19
(UTC+00:00)

Cosmos 1844 Rocket - Pass Details

Date: 16 June 2021
Orbit: 823 x 846 km, 71.0° (Epoch: 02 August)

Event Time Altitude Azimuth Distance (km) Brightness Sun altitude
Rises 20:33:40 0° 332° (NNW) 3,410 7.7 -4.8°
Reaches altitude 10° 20:36:12 10° 338° (NNW) 2,474 6.5 -5.1°
Maximum altitude 20:41:45 52° 54° (NE) 1,048 3.2 -5.7°
Drops below altitude 10° 20:47:16 10° 131° (SE) 2,466 4.5 -6.3°
Enters shadow 20:47:52 - 132° (SE) 2,684 4.6 -6.4°
